Dewpoint
71 70 71 70 59 56 49 50 52 49 50 52 52 51 52 60 53 49 66 66 66 67 70 71 75 73 72 72 73 73 73 72 74 73 74 74 73 75 75 75 75 76 75 75 75 75 75 75 75
69 70 71 68 55 46 48 51 50 54 55 55 58 59 59 59 62 64 65 67 67 68 69 70 75 74 72 72 73 73 73 73 73 74 73 75 76 76 75 75 75 75 75 75 75 75 75 74 74
69 70 66 61 55 48 49 53 54 55 55 55 59 60 60 60 63 63 67 68 69 69 69 71 74 73 72 73 73 73 72 73 73 74 74 74 75 76 76 76 75 75 75 75 75 74 74 74 75
69 68 66 57 51 51 51 54 54 54 56 59 59 59 62 64 63 67 68 68 68 70 70 73 74 74 72 73 73 73 73 73 75 74 74 74 75 75 75 75 75 75 75 74 74 74 74 74 74
68 65 58 54 51 51 53 53 54 53 56 58 59 59 60 66 68 68 69 68 69 70 71 73 75 74 73 73 73 73 74 74 74 75 75 76 75 75 75 75 75 74 73 73 74 74 74 74 74
63 65 56 53 50 51 53 54 55 55 57 59 58 58 62 68 68 67 69 69 68 69 71 71 74 75 74 73 74 74 75 74 75 75 76 75 75 76 76 75 74 73 73 73 73 73 74 75 74
62 60 57 54 50 51 52 55 54 55 56 57 59 57 64 65 67 68 69 69 70 71 70 70 71 73 74 74 74 75 75 75 75 75 76 76 75 75 75 75 74 74 74 74 73 73 74 74 74
64 60 56 57 53 52 54 54 55 53 55 58 58 57 60 64 66 68 69 69 70 70 70 70 73 72 72 73 74 75 75 75 75 76 76 75 75 75 76 75 76 74 74 73 73 73 73 74 74
63 57 55 55 56 54 55 52 55 57 55 57 59 59 62 65 66 66 66 67 70 70 70 70 71 73 74 73 73 74 75 75 75 75 75 75 73 73 72 75 74 74 73 73 73 73 73 74 72
59 56 54 59 59 57 58 52 53 53 53 58 62 64 66 67 64 62 62 64 66 67 68 69 70 71 72 70 73 73 73 73 73 75 76 74 74 74 71 73 75 74 74 74 73 73 72 71 67
59 57 58 59 59 60 58 53 53 51 53 57 59 63 65 66 64 64 63 64 65 67 68 69 70 71 70 71 73 72 72 73 74 76 76 75 73 73 71 72 71 72 71 67 68 69 68 69 68
57 59 58 59 59 60 60 60 52 52 54 57 61 64 64 65 64 63 63 64 65 67 68 69 71 72 73 72 71 73 72 73 72 73 75 74 71 73 73 71 73 72 70 70 70 69 71 70 70
59 59 61 62 62 62 63 61 58 53 57 59 62 64 64 64 65 64 63 64 66 67 68 69 72 73 73 73 73 74 73 72 72 72 73 72 72 72 72 71 70 70 70 69 71 70 71 71 70
60 60 61 62 61 59 61 61 61 59 58 60 62 62 63 64 64 63 64 64 66 67 68 69 71 73 73 72 74 73 73 72 72 70 70 73 73 73 71 70 69 69 70 71 70 71 71 69 68
60 58 58 60 60 57 61 54 57 57 58 59 60 61 62 63 63 62 62 63 65 66 67 69 70 71 73 73 73 72 71 69 69 69 73 73 73 74 74 70 68 69 72 73 73 72 69 69 68
55 55 51 59 58 58 59 53 55 58 57 58 59 60 62 63 62 63 62 63 64 65 68 69 68 69 71 72 73 70 69 70 71 70 71 73 73 74 74 69 69 71 72 70 70 69 69 70 68
46 43 48 52 57 59 59 56 55 57 57 57 58 59 60 62 63 64 63 63 64 66 67 69 70 69 71 72 71 71 72 71 71 71 71 73 72 72 73 71 71 74 71 70 69 69 73 70 68
30 34 38 37 49 57 55 56 57 55 55 56 57 58 59 60 61 63 63 63 65 66 67 69 70 71 72 71 72 70 70 70 71 70 70 72 71 73 73 71 73 73 71 70 69 74 71 70 70
32 29 26 24 37 52 50 52 52 55 54 54 56 57 58 59 60 61 62 63 64 66 67 69 70 72 71 70 69 69 68 69 70 71 72 73 73 73 74 71 72 73 71 71 73 72 73 68 71
15 18 16 24 26 31 35 44 49 55 54 53 54 55 56 57 58 60 61 62 63 65 67 68 70 71 71 70 70 69 68 69 69 71 72 72 73 73 72 73 73 74 70 73 73 74 70 69 71
11 13 13 10 10 21 39 47 53 55 55 54 54 55 55 55 57 58 60 62 62 64 67 68 70 71 72 72 71 71 71 71 70 71 70 71 73 73 73 74 74 75 73 69 73 73 72 67 70
12 10 8 7 9 20 21 20 42 52 53 54 54 53 54 55 56 57 59 61 62 63 66 68 70 71 71 73 72 73 69 68 68 70 70 71 73 73 73 74 74 75 73 73 73 73 73 73 67
13 18 13 8 9 10 23 23 30 52 52 53 53 54 54 54 55 55 57 61 62 63 65 67 71 71 72 73 73 71 71 70 70 70 72 74 74 73 72 73 74 75 74 75 75 75 74 71 70
20 13 12 24 11 16 23 24 28 33 42 48 54 54 54 54 55 55 57 60 62 63 65 66 71 73 72 72 73 73 74 72 70 71 70 70 69 70 73 73 74 75 75 75 74 76 76 74 73
20 9 4 8 14 13 25 22 30 36 43 47 37 46 54 55 54 55 56 59 62 63 64 66 70 71 71 71 72 72 74 74 73 73 71 72 69 69 73 74 74 73 76 76 76 76 75 75 73
22 10 12 10 6 9 17 19 24 27 26 31 33 39 45 49 53 54 54 59 62 63 65 66 69 71 71 71 73 74 75 71 71 73 71 71 70 70 74 73 73 74 75 75 76 74 73 75 74
19 21 15 13 12 9 9 14 17 22 27 32 35 41 44 50 53 53 54 56 61 63 65 66 69 70 71 70 72 74 74 74 72 74 74 72 74 71 74 73 73 73 74 75 76 73 74 74 74
17 20 15 16 13 9 8 17 11 28 32 35 41 43 49 55 55 59 54 56 59 61 64 65 66 69 69 69 71 72 73 74 74 74 73 74 74 75 73 74 73 74 75 75 75 73 74 75 73
21 22 23 19 18 13 11 11 25 30 32 37 39 44 50 54 59 62 57 54 58 59 62 64 65 68 69 70 71 72 71 73 73 73 73 73 74 75 75 75 74 74 75 75 75 75 74 74 75
22 25 23 21 22 23 22 17 20 29 26 34 39 48 53 55 60 63 59 54 56 59 61 63 65 67 69 71 71 71 71 72 71 73 73 73 74 74 74 74 74 74 74 75 75 74 72 73 74
Lifted_Index
-3 -3 -3 -3 -2 -0 -0 -0 -0 -1 -1 -1 -1 -1 -2 -2 -2 -2 -2 -2 -1 -2 -2 -3 -3 -3 -3 -3 -3 -3 -3 -2 -3 -3 -3 -4 -4 -5 -5 -5 -4 -5 -5 -5 -4 -4 -4 -4 -4
-3 -3 -3 -3 -1 -0 0 0 -0 -1 -1 -1 -2 -2 -2 -2 -2 -2 -2 -2 -2 -2 -2 -3 -3 -3 -3 -3 -3 -3 -3 -3 -3 -3 -4 -4 -5 -5 -5 -5 -5 -5 -5 -4 -4 -4 -4 -3 -3
-3 -3 -3 -2 -1 0 0 0 -0 -0 -1 -2 -2 -3 -2 -2 -2 -2 -2 -3 -3 -3 -3 -3 -3 -3 -3 -3 -3 -3 -3 -3 -3 -3 -4 -4 -5 -5 -5 -5 -5 -5 -4 -4 -4 -3 -3 -3 -3
-3 -3 -3 -2 -1 0 0 0 0 -0 -1 -2 -2 -2 -2 -2 -2 -2 -2 -3 -3 -3 -3 -4 -4 -4 -4 -3 -4 -3 -3 -3 -4 -4 -4 -5 -5 -5 -5 -5 -5 -4 -4 -4 -4 -3 -3 -4 -4
-2 -3 -2 -1 -0 0 1 1 1 0 -1 -1 -2 -1 -2 -2 -2 -2 -2 -3 -3 -3 -4 -4 -4 -4 -4 -4 -4 -4 -4 -4 -5 -5 -5 -5 -5 -5 -5 -4 -4 -4 -3 -3 -3 -3 -4 -4 -4
-2 -2 -2 -1 -1 0 1 1 1 0 -0 -1 -1 -1 -1 -2 -2 -2 -2 -2 -3 -3 -3 -3 -4 -4 -4 -4 -4 -5 -5 -5 -5 -5 -6 -5 -5 -5 -5 -4 -3 -3 -3 -3 -3 -3 -4 -4 -5
-2 -2 -2 -1 -1 -0 0 1 1 1 1 0 -0 -0 -1 -1 -1 -1 -2 -2 -3 -3 -3 -3 -3 -4 -4 -4 -5 -5 -5 -5 -6 -6 -6 -5 -5 -5 -5 -4 -3 -3 -3 -3 -3 -4 -4 -5 -5
-2 -2 -1 -1 -1 -0 0 1 2 2 1 1 0 0 -0 -1 -1 -1 -1 -2 -2 -3 -3 -3 -3 -4 -4 -4 -4 -5 -5 -6 -6 -6 -6 -5 -5 -5 -4 -4 -4 -4 -4 -4 -4 -4 -4 -5 -5
-1 -1 -1 -1 -1 -0 0 1 2 2 1 1 0 -0 -0 -0 -0 -0 -0 -1 -2 -2 -3 -3 -3 -4 -4 -4 -4 -4 -5 -5 -6 -6 -5 -5 -4 -4 -4 -4 -4 -4 -4 -4 -4 -4 -4 -5 -5
-0 -0 -0 -1 -1 -1 0 1 1 2 2 0 -0 -1 -1 -0 0 0 0 -0 -1 -2 -2 -2 -3 -3 -3 -3 -4 -4 -4 -5 -5 -5 -5 -4 -4 -4 -4 -4 -4 -4 -4 -4 -4 -4 -4 -4 -4
-0 -0 -0 -1 -1 -1 -0 0 1 2 2 1 -0 -1 -1 -0 0 0 0 0 -1 -1 -2 -2 -3 -3 -3 -3 -3 -4 -4 -4 -5 -5 -4 -4 -4 -4 -4 -4 -4 -3 -3 -3 -3 -4 -4 -4 -4
-1 -1 -1 -1 -1 -1 -1 -1 0 1 2 1 0 -1 -1 -1 -0 0 0 0 -0 -1 -1 -2 -2 -3 -3 -3 -3 -4 -4 -4 -4 -4 -3 -3 -3 -3 -3 -3 -3 -3 -2 -3 -3 -4 -5 -5 -5
-1 -1 -1 -1 -1 -1 -2 -2 -1 0 1 1 0 -0 -1 -1 -1 -0 0 0 -0 -1 -1 -2 -2 -3 -3 -3 -4 -4 -4 -3 -3 -3 -2 -2 -3 -3 -3 -3 -2 -2 -2 -3 -4 -5 -5 -5 -5
-1 -1 -1 -1 -1 -1 -2 -2 -1 -0 1 1 1 -0 -0 -1 -0 0 1 1 0 -0 -1 -1 -2 -2 -3 -3 -3 -4 -3 -3 -2 -2 -2 -2 -3 -3 -3 -2 -1 -2 -2 -3 -4 -5 -5 -5 -5
-1 -1 -1 -1 -0 -1 -2 -2 -1 -1 0 1 1 0 -0 -0 -0 0 1 1 1 0 -1 -1 -2 -2 -2 -3 -3 -3 -2 -2 -1 -1 -2 -3 -3 -3 -3 -2 -1 -2 -3 -4 -5 -5 -5 -5 -6
-1 -0 -0 -0 -0 -1 -2 -2 -1 -1 -0 0 1 0 -0 -0 -0 0 1 1 1 0 -0 -1 -1 -1 -2 -2 -2 -2 -2 -2 -2 -2 -2 -3 -3 -3 -3 -2 -2 -3 -4 -4 -5 -5 -6 -6 -6
1 1 0 0 0 -1 -1 -1 -1 -0 -0 0 1 1 0 -0 -0 -0 0 1 1 1 0 -1 -1 -1 -2 -2 -2 -2 -2 -2 -2 -2 -2 -2 -3 -3 -3 -3 -3 -4 -4 -4 -5 -5 -6 -6 -6
2 1 1 1 1 0 -1 -1 -0 -0 -0 0 1 1 1 0 0 0 0 0 1 1 0 -0 -1 -1 -2 -2 -2 -2 -2 -2 -2 -2 -2 -2 -2 -3 -3 -3 -3 -4 -4 -4 -5 -6 -6 -6 -6
3 2 1 2 2 2 0 0 -0 0 -0 0 0 1 1 1 1 1 1 0 0 0 0 -0 -1 -1 -2 -2 -1 -1 -1 -1 -2 -2 -2 -2 -3 -3 -3 -3 -4 -4 -4 -4 -5 -6 -6 -6 -6
4 3 2 2 3 3 2 0 -0 -0 -0 -0 -0 0 0 1 1 1 1 1 1 0 0 0 -1 -1 -1 -1 -1 -1 -1 -1 -2 -2 -2 -3 -3 -3 -3 -3 -4 -4 -4 -4 -5 -6 -6 -6 -6
6 5 4 3 3 4 3 1 -1 -1 -1 -1 -0 -0 0 1 1 1 1 1 1 0 -0 -0 -0 -1 -1 -1 -1 -1 -1 -1 -2 -3 -3 -3 -3 -3 -4 -4 -4 -5 -5 -5 -5 -6 -6 -6 -6
7 7 6 4 3 3 3 2 0 -1 -2 -1 -1 -1 -0 0 1 1 1 1 1 0 -0 -0 -0 -1 -1 -1 -2 -2 -2 -2 -2 -3 -3 -4 -4 -4 -4 -4 -5 -5 -5 -5 -6 -6 -6 -6 -5
7 8 7 6 4 3 3 3 2 -0 -2 -2 -2 -1 -1 -0 -0 0 1 0 0 0 -0 -1 -1 -1 -1 -1 -2 -2 -3 -2 -2 -3 -3 -3 -4 -4 -4 -4 -5 -5 -6 -6 -6 -6 -6 -6 -5
8 7 6 5 4 3 3 4 3 1 -0 -1 -1 -1 -1 -1 -0 -0 0 0 0 -0 -0 -1 -1 -2 -2 -2 -2 -3 -3 -3 -3 -3 -3 -3 -3 -4 -4 -4 -5 -5 -6 -6 -6 -6 -6 -6 -6
8 7 4 3 2 3 4 5 4 3 2 1 1 1 -0 -0 -0 -0 -0 -0 -0 -0 -1 -1 -2 -2 -2 -2 -2 -3 -3 -3 -3 -4 -4 -4 -4 -4 -4 -4 -5 -5 -6 -6 -6 -6 -6 -6 -6
7 6 4 2 2 3 5 5 5 5 4 4 4 3 1 0 -0 -0 -0 -1 -1 -1 -1 -2 -2 -2 -2 -2 -3 -3 -3 -3 -4 -4 -4 -4 -4 -4 -4 -5 -5 -5 -6 -6 -6 -6 -6 -6 -5
7 7 5 4 3 3 4 5 6 6 6 6 5 4 2 1 -0 -1 -0 -0 -1 -1 -1 -2 -2 -2 -2 -2 -3 -3 -3 -4 -4 -4 -5 -5 -5 -5 -5 -5 -5 -5 -5 -6 -6 -6 -5 -5 -5
7 7 6 5 3 2 2 4 6 7 7 6 5 4 2 0 -1 -2 -1 -0 -0 -1 -1 -1 -2 -2 -2 -2 -2 -3 -3 -4 -4 -4 -5 -5 -5 -5 -5 -5 -5 -5 -5 -6 -6 -5 -5 -5 -5
7 7 6 5 3 2 2 4 6 8 8 7 6 4 2 0 -2 -3 -2 -1 -1 -1 -1 -1 -1 -2 -2 -3 -3 -3 -3 -3 -4 -4 -5 -5 -5 -6 -6 -6 -6 -6 -6 -6 -5 -5 -5 -5 -5
7 7 6 5 4 3 3 4 7 8 8 8 6 4 2 0 -2 -3 -3 -2 -1 -1 -1 -1 -1 -2 -2 -3 -3 -3 -3 -3 -4 -4 -5 -5 -6 -6 -6 -6 -6 -6 -6 -6 -5 -5 -4 -4 -5